[[{"header":{"parameterUnit":"m.s-1","parameterCategory":1,"la1":30.2991,"la2":30.254,"lo1":-89.0895,"lo2":-89.0444,"dy":0.0017,"dx":0.0017,"nx":28,"ny":28,"refTime":"2025-04-23T03:00:00:Z","depth":0,"parameterNumber":2,"parameterNumberName":"U-component_of_WINDS"},"data":[0,0,0,0,0,0,0,0,0,0,0,0,0,0,0,0,0,0,0,0,0,0,0,0,0,0,0,0,0,0,0,0,0,0,0,0,0,0,0,0,0,0,0,0,0,0,0,0,0,0,0,0,0,0,0,0,0,0,-2.0555,-2.0556,0,-2.0643,-2.0644,-2.0645,-2.064,-2.0639,-2.0638,-2.0637,-2.0728,-2.0732,-2.0735,0,0,0,0,0,0,0,0,0,0,0,0,0,-2.0384,-2.0387,-2.0555,-2.0556,-2.0557,-2.0643,-2.0645,-2.0646,-2.0641,-2.0639,-2.0637,-2.0636,-2.0727,-2.0731,-2.0736,0,0,0,0,0,0,0,0,0,0,0,0,0,-2.0464,-2.0388,-2.0555,-2.0565,-2.0567,-2.0643,-2.0645,-2.0646,-2.0641,-2.0639,-2.0637,-2.0635,-2.0725,-2.0731,-2.0736,-2.0808,0,0,-2.0753,-2.0755,0,0,0,0,0,0,0,0,-2.0459,-2.047,-2.0563,-2.0565,-2.0567,-2.0629,-2.0618,-2.07,-2.0641,-2.0613,-2.0637,-2.0634,-2.0697,-2.0704,-2.0725,-2.0813,-2.0816,-2.0753,-2.0757,-2.0759,-2.076,0,0,0,0,0,0,0,-2.0454,-2.0466,-2.059,-2.0564,-2.0566,-2.0566,-2.0575,-2.0633,-2.0665,-2.0615,-2.0615,-2.0626,-2.0698,-2.072,-2.0727,-2.0818,-2.0753,-2.0758,-2.0761,-2.0763,-2.0969,-2.0971,0,0,0,0,0,0,-2.0446,-2.0462,-2.0587,-2.0593,-2.0507,-2.057,-2.0581,-2.0611,-2.0664,-2.067,-2.0627,-2.0625,-2.0712,-2.0721,-2.0731,-2.0819,-2.0759,-2.0764,-2.0767,-2.0967,-2.097,-2.0972,0,0,0,0,0,0,-2.0442,-2.0457,-2.0584,-2.0527,-2.0543,-2.0575,-2.0609,-2.0614,-2.0636,-2.0673,-2.0678,-2.0644,-2.071,-2.0723,-2.0789,-2.0822,-2.0766,-2.0771,-2.0964,-2.0968,-2.0971,-2.0995,0,0,0,0,0,0,-2.0437,-2.0456,-2.0483,-2.0528,-2.0546,-2.064,-2.0611,-2.0617,-2.0645,-2.0643,-2.069,-2.0696,-2.071,-2.0781,-2.0794,-2.0828,-2.0776,-2.0962,-2.0966,-2.097,-2.0991,-2.0999,-2.1005,0,0,0,0,0,-2.0431,-2.0486,-2.0484,-2.05,-2.0581,-2.0642,-2.0653,-2.0667,-2.0648,-2.0676,-2.07,-2.0695,-2.0816,-2.0788,-2.0803,-2.0839,-2.096,-2.0965,-2.097,-2.0988,-2.0997,-2.1005,0,0,0,0,0,0,-2.0445,-2.0492,-2.0491,-2.0562,-2.0598,-2.0641,-2.0677,-2.0676,-2.0718,-2.0715,-2.0731,-2.0742,-2.0808,-2.083,-2.0798,-2.0912,-2.0885,-2.0894,-2.0895,-2.0903,-2.091,-2.0903,-2.078,0,0,0,0,0,-2.0456,-2.0501,-2.0541,-2.06,-2.0618,-2.0644,-2.0672,-2.0679,-2.0718,-2.0733,-2.0761,-2.0799,-2.0845,-2.0876,-2.092,-2.0995,-2.1005,-2.1027,-2.1034,-2.1039,-2.1046,-2.1087,-2.1097,-2.0988,-2.0988,-2.0988,0,0,-2.048,-2.0512,-2.0539,-2.0604,-2.0632,-2.0679,-2.0657,-2.0708,-2.0743,-2.0741,-2.0805,-2.0827,-2.087,-2.0941,-2.0973,-2.0961,-2.1079,-2.1045,-2.1049,-2.1053,-2.1093,-2.1104,-2.1113,-2.0992,-2.0991,-2.0991,0,0,-2.0547,-2.0576,-2.0628,-2.0658,-2.0701,-2.0719,-2.0731,-2.0775,-2.0789,-2.0854,-2.0853,-2.0896,-2.0976,-2.1006,-2.1032,-2.1112,-2.1109,-2.1126,-2.1161,-2.1202,-2.121,-2.1218,-2.1246,-2.1256,-2.1133,-2.1133,-2.1133,0,-2.0571,-2.0641,-2.0655,-2.0706,-2.0735,-2.0735,-2.0789,-2.0817,-2.0873,-2.0893,-2.0879,-2.0979,-2.1008,-2.1086,-2.1105,-2.1126,-2.1142,-2.1121,-2.1208,-2.1216,-2.1223,-2.125,-2.1261,-2.1135,-2.1135,-2.1135,-2.1134,0,-2.0669,-2.0718,-2.0755,-2.0809,-2.0842,-2.0894,-2.0916,-2.0948,-2.0953,-2.0972,-2.1038,-2.1073,-2.1125,-2.1145,-2.115,-2.1224,-2.1215,-2.1204,-2.1178,-2.1235,-2.1261,-2.1271,-2.1137,-2.1137,-2.1136,-2.1136,0,0,-2.0747,-2.0808,-2.0822,-2.0846,-2.0895,-2.0933,-2.0986,-2.1036,-2.1063,-2.1103,-2.1147,-2.1215,-2.1205,-2.1235,-2.1244,-2.128,-2.1341,-2.1265,-2.1266,-2.1277,-2.1424,-2.1431,-2.1443,-2.1339,-2.1341,-2.1343,-2.142,0,-2.0819,-2.0911,-2.0925,-2.1007,-2.1052,-2.1053,-2.1099,-2.1134,-2.1154,-2.1195,-2.1217,-2.1265,-2.1249,-2.1267,-2.1301,-2.1326,-2.137,-2.132,-2.1381,-2.1383,-2.137,-2.1457,-2.1465,-2.1536,-2.143,-2.1432,-2.1433,0,-2.0915,-2.0956,-2.1042,-2.1085,-2.1105,-2.1145,-2.1193,-2.1233,-2.1273,-2.1285,-2.1318,-2.1324,-2.1379,-2.1351,-2.1427,-2.1393,-2.1419,-2.1434,-2.1438,-2.1443,-2.1411,-2.1465,-2.1559,-2.1569,-2.145,-2.1448,-2.1447,0,-2.0963,-2.104,-2.1101,-2.1123,-2.1174,-2.1203,-2.1226,-2.1264,-2.1294,-2.1336,-2.1355,-2.1404,-2.143,-2.1467,-2.1486,-2.1464,-2.1561,-2.1534,-2.1572,-2.1572,-2.1592,-2.1591,-2.1691,-2.161,-2.1609,-2.1609,-2.1609,0,-2.1041,-2.1094,-2.1123,-2.1161,-2.122,-2.1237,-2.1295,-2.1317,-2.1351,-2.1394,-2.1398,-2.1438,-2.146,-2.1504,-2.1519,-2.158,-2.1591,-2.1603,-2.1606,-2.1602,-2.1601,-2.1619,-2.1614,-2.1612,-2.1611,-2.1611,-2.161,0,-2.1104,-2.1126,-2.1193,-2.1237,-2.1249,-2.1291,-2.1328,-2.1365,-2.1385,-2.1438,-2.1452,-2.1483,-2.1534,-2.1556,-2.162,-2.163,-2.1699,-2.1699,-2.1686,-2.1687,-2.1723,-2.172,-2.1839,-2.1856,-2.1763,-2.1764,-2.1765,0,-2.1153,-2.1193,-2.1241,-2.127,-2.1293,-2.1339,-2.137,-2.1388,-2.1419,-2.1469,-2.15,-2.1551,-2.1593,-2.1675,-2.1704,-2.1752,-2.1753,-2.1792,-2.176,-2.1756,-2.1754,-2.1751,-2.1755,-2.1797,-2.1798,-2.1799,-2.18,0,-2.1237,-2.1246,-2.1289,-2.1337,-2.1372,-2.1411,-2.1448,-2.1472,-2.1496,-2.1531,-2.1583,-2.1616,-2.1681,-2.1732,-2.1782,-2.1807,-2.1808,-2.1809,-2.1821,-2.1817,-2.1807,-2.1813,-2.1701,-2.1806,-2.1806,-2.1805,-2.1805,-2.1805,-2.1294,-2.133,-2.1369,-2.1418,-2.1448,-2.1483,-2.152,-2.1544,-2.1588,-2.1641,-2.165,-2.1706,-2.1746,-2.1814,-2.184,-2.1884,-2.1875,-2.1891,-2.1895,-2.1899,-2.1901,-2.1801,-2.1894,-2.1894,-2.1893,-2.1893,-2.1893,0,-2.1378,-2.1404,-2.1448,-2.15,-2.1538,-2.1535,-2.1577,-2.1609,-2.1658,-2.1695,-2.1737,-2.1797,-2.1847,-2.1879,-2.193,-2.1959,-2.1961,-2.1972,-2.197,-2.1975,-2.1907,-2.1892,-2.1969,-2.1969,-2.1969,-2.1969,-2.1969,-2.1969,-2.1426,-2.1487,-2.1501,-2.1577,-2.1602,-2.1657,-2.1681,-2.1713,-2.1743,-2.181,-2.1851,-2.1872,-2.1908,-2.1961,-2.2006,-2.2015,-2.2033,-2.2045,-2.2052,-2.1988,-2.198,-2.1972,-2.1958,-2.2048,-2.2049,-2.2117,-2.2118,-2.2118]},{"header":{"parameterUnit":"m.s-1","parameterCategory":1,"la1":30.2991,"la2":30.254,"lo1":-89.0895,"lo2":-89.0444,"dy":0.0017,"dx":0.0017,"nx":28,"ny":28,"refTime":"2025-04-23T03:00:00:Z","depth":0,"parameterNumber":3,"parameterNumberName":"V-component_of_WINDS"},"data":[0,0,0,0,0,0,0,0,0,0,0,0,0,0,0,0,0,0,0,0,0,0,0,0,0,0,0,0,0,0,0,0,0,0,0,0,0,0,0,0,0,0,0,0,0,0,0,0,0,0,0,0,0,0,0,0,0,0,1.5767,1.5767,0,1.5802,1.5802,1.5803,1.5819,1.5819,1.5819,1.5819,1.5854,1.5855,1.5856,0,0,0,0,0,0,0,0,0,0,0,0,0,1.5712,1.5713,1.5767,1.5767,1.5768,1.5802,1.5802,1.5803,1.5819,1.5819,1.5819,1.5819,1.5854,1.5855,1.5856,0,0,0,0,0,0,0,0,0,0,0,0,0,1.5741,1.5714,1.5767,1.578,1.5781,1.5802,1.5802,1.5803,1.5819,1.5819,1.5819,1.5819,1.5853,1.5855,1.5856,1.5866,0,0,1.586,1.5861,0,0,0,0,0,0,0,0,1.5739,1.5743,1.5777,1.5779,1.5781,1.5806,1.5796,1.5824,1.5819,1.5805,1.5819,1.5819,1.5838,1.5841,1.5847,1.5868,1.5869,1.5861,1.5861,1.5862,1.5863,0,0,0,0,0,0,0,1.5737,1.5741,1.5781,1.5778,1.578,1.5784,1.5788,1.5802,1.5821,1.5806,1.5807,1.5811,1.5839,1.5846,1.5848,1.587,1.5861,1.5862,1.5863,1.5863,1.59,1.59,0,0,0,0,0,0,1.5733,1.5739,1.5779,1.5782,1.5759,1.5785,1.5789,1.5798,1.5821,1.5824,1.5811,1.5812,1.5843,1.5847,1.585,1.5863,1.5862,1.5863,1.5864,1.59,1.59,1.59,0,0,0,0,0,0,1.5732,1.5736,1.5778,1.5761,1.5766,1.5786,1.5795,1.5799,1.5806,1.5825,1.5828,1.5815,1.5844,1.5848,1.5862,1.5864,1.5864,1.5865,1.59,1.59,1.59,1.5889,0,0,0,0,0,0,1.573,1.5736,1.574,1.5761,1.5767,1.579,1.5796,1.5799,1.5808,1.5809,1.5829,1.5833,1.5844,1.586,1.5863,1.5866,1.5867,1.59,1.59,1.59,1.589,1.5889,1.5889,0,0,0,0,0,1.5728,1.5735,1.574,1.5745,1.5773,1.579,1.5794,1.5807,1.5808,1.5813,1.5825,1.5832,1.5863,1.5861,1.5865,1.5869,1.5899,1.59,1.59,1.589,1.5889,1.5889,0,0,0,0,0,0,1.5714,1.5738,1.5744,1.5758,1.5772,1.5793,1.5798,1.5806,1.5819,1.582,1.5835,1.5839,1.5852,1.5862,1.5859,1.588,1.5882,1.5883,1.5873,1.5872,1.5872,1.5869,1.5868,0,0,0,0,0,1.5713,1.5725,1.5745,1.5756,1.5762,1.5779,1.5787,1.5796,1.5811,1.5817,1.583,1.5844,1.5857,1.5865,1.5878,1.5891,1.5896,1.5895,1.5895,1.5895,1.5895,1.5903,1.5903,1.5901,1.5901,1.5901,0,0,1.571,1.5724,1.5731,1.5753,1.5765,1.5777,1.5784,1.5796,1.5805,1.5818,1.5833,1.5843,1.586,1.5873,1.588,1.5882,1.5897,1.5895,1.5894,1.5895,1.5903,1.5903,1.5904,1.5901,1.5901,1.5901,0,0,1.571,1.5723,1.5733,1.5745,1.5763,1.5774,1.5776,1.5796,1.5803,1.5818,1.5828,1.5839,1.5861,1.5873,1.5882,1.5887,1.5894,1.5891,1.5888,1.5896,1.5896,1.5896,1.5898,1.5899,1.5891,1.5891,1.5891,0,1.5704,1.5723,1.5737,1.5749,1.5759,1.5771,1.5782,1.5792,1.5813,1.5819,1.5821,1.585,1.5861,1.5878,1.5879,1.5886,1.5889,1.5888,1.5895,1.5895,1.5895,1.5898,1.5898,1.5891,1.5891,1.5891,1.5891,0,1.5715,1.5728,1.5734,1.5754,1.5764,1.5775,1.5791,1.5799,1.5807,1.5818,1.5833,1.5848,1.5865,1.5869,1.5877,1.5887,1.5888,1.5892,1.5895,1.5895,1.5897,1.5898,1.589,1.589,1.589,1.5891,0,0,1.5708,1.5736,1.5738,1.5747,1.5768,1.5778,1.579,1.5806,1.5813,1.5827,1.5837,1.5856,1.586,1.587,1.5879,1.5885,1.5889,1.5889,1.589,1.5888,1.5901,1.5898,1.5898,1.5894,1.5894,1.5894,1.59,0,1.5712,1.5733,1.5746,1.5762,1.5774,1.5787,1.5797,1.5811,1.5821,1.5833,1.5844,1.5857,1.5862,1.5868,1.5875,1.5887,1.5892,1.5887,1.5903,1.5903,1.5899,1.5899,1.5896,1.59,1.59,1.5901,1.5901,0,1.5719,1.5733,1.575,1.577,1.5775,1.5784,1.58,1.5811,1.5827,1.5834,1.5845,1.5855,1.5867,1.5869,1.5887,1.5883,1.5891,1.5898,1.5898,1.59,1.5902,1.5901,1.5902,1.5903,1.5902,1.5902,1.5902,0,1.5712,1.5735,1.5749,1.5756,1.5779,1.5785,1.5795,1.5811,1.582,1.5834,1.584,1.5855,1.5864,1.5875,1.5888,1.5888,1.5905,1.5907,1.5911,1.591,1.5914,1.5913,1.5916,1.5918,1.5918,1.5918,1.5918,0,1.5715,1.5725,1.5746,1.5754,1.5766,1.5781,1.5792,1.5803,1.5817,1.5828,1.5839,1.5849,1.5865,1.5877,1.5887,1.5901,1.5904,1.591,1.5913,1.5909,1.5909,1.5914,1.5914,1.5918,1.5918,1.5918,1.5918,0,1.5709,1.5724,1.5739,1.576,1.5765,1.5773,1.5791,1.5799,1.581,1.5823,1.5827,1.5845,1.5859,1.5874,1.5893,1.59,1.5913,1.5916,1.5907,1.5909,1.5912,1.5911,1.5918,1.5919,1.5921,1.5921,1.5921,0,1.571,1.5718,1.574,1.5748,1.5757,1.577,1.5779,1.5794,1.5804,1.5822,1.5828,1.5844,1.5857,1.5879,1.5893,1.5908,1.5912,1.5914,1.5915,1.5911,1.5912,1.5912,1.5913,1.5913,1.5913,1.5913,1.5913,0,1.571,1.5717,1.573,1.5746,1.5757,1.577,1.5783,1.5789,1.5806,1.5816,1.5831,1.5841,1.5861,1.5876,1.5893,1.5903,1.5911,1.5912,1.5914,1.591,1.5905,1.5908,1.5906,1.5912,1.5912,1.5912,1.5912,1.5912,1.5708,1.5716,1.5732,1.5746,1.5758,1.577,1.5779,1.5792,1.5805,1.5822,1.583,1.5845,1.5861,1.5884,1.5894,1.5906,1.5908,1.591,1.5911,1.5911,1.591,1.5903,1.5909,1.5909,1.5909,1.5909,1.5909,0,1.5709,1.572,1.5733,1.5751,1.5762,1.5769,1.5784,1.5793,1.5807,1.5821,1.5833,1.585,1.5865,1.5881,1.5896,1.5903,1.5907,1.5906,1.5906,1.5908,1.5907,1.5905,1.5903,1.5903,1.5903,1.5903,1.5903,1.5903,1.571,1.5724,1.5733,1.5752,1.5764,1.5779,1.5787,1.5798,1.5809,1.5828,1.5841,1.5851,1.5865,1.5882,1.5896,1.59,1.5905,1.5904,1.5909,1.5908,1.5908,1.5909,1.5906,1.5905,1.5905,1.5909,1.5909,1.5909]}]]